Year,Month,Day,Hour,Minute,Value (Times are PST for temperature in C)
2010,10,15,00,00,10.10
2010,10,15,00,01,10.10
2010,10,15,00,02,10.10
2010,10,15,00,03,10.10
2010,10,15,00,04,10.10
2010,10,15,00,05,10.10
2010,10,15,00,06,10.10
2010,10,15,00,07,10.10
2010,10,15,00,08,10.10
2010,10,15,00,09,10.10
2010,10,15,00,10,10.10
2010,10,15,00,11,10.00
2010,10,15,00,12,9.90
2010,10,15,00,13,9.90
2010,10,15,00,14,9.90
2010,10,15,00,15,9.90
2010,10,15,00,16,9.90
2010,10,15,00,17,9.90
2010,10,15,00,18,9.90
2010,10,15,00,19,9.90
2010,10,15,00,20,9.90
2010,10,15,00,21,9.90
2010,10,15,00,22,9.90
2010,10,15,00,23,9.90
2010,10,15,00,24,9.80
2010,10,15,00,25,9.80
2010,10,15,00,26,9.80
2010,10,15,00,27,9.80
2010,10,15,00,28,9.80
2010,10,15,00,29,9.70
2010,10,15,00,30,9.70
2010,10,15,00,31,9.70
2010,10,15,00,32,9.70
2010,10,15,00,33,9.70
2010,10,15,00,34,9.70
2010,10,15,00,35,9.70
2010,10,15,00,36,9.60
2010,10,15,00,37,9.60
2010,10,15,00,38,9.60
2010,10,15,00,39,9.50
2010,10,15,00,40,9.50
2010,10,15,00,41,9.50
2010,10,15,00,42,9.40
2010,10,15,00,43,9.40
2010,10,15,00,44,9.40
2010,10,15,00,45,9.30
2010,10,15,00,46,9.30
2010,10,15,00,47,9.30
2010,10,15,00,48,9.30
2010,10,15,00,49,9.20
2010,10,15,00,50,9.20
2010,10,15,00,51,9.20
2010,10,15,00,52,9.20
2010,10,15,00,53,9.20
2010,10,15,00,54,9.20
2010,10,15,00,55,9.20
2010,10,15,00,56,9.20
2010,10,15,00,57,9.20
2010,10,15,00,58,9.10
2010,10,15,00,59,9.10
2010,10,15,01,00,9.10
2010,10,15,01,01,9.10
2010,10,15,01,02,9.10
2010,10,15,01,03,9.10
2010,10,15,01,04,9.00
2010,10,15,01,05,9.00
2010,10,15,01,06,8.90
2010,10,15,01,07,8.90
2010,10,15,01,08,8.90
2010,10,15,01,09,8.80
2010,10,15,01,10,8.80
2010,10,15,01,11,8.70
2010,10,15,01,12,8.70
2010,10,15,01,13,8.70
2010,10,15,01,14,8.70
2010,10,15,01,15,8.70
2010,10,15,01,16,8.70
2010,10,15,01,17,8.60
2010,10,15,01,18,8.60
2010,10,15,01,19,8.60
2010,10,15,01,20,8.60
2010,10,15,01,21,8.60
2010,10,15,01,22,8.60
2010,10,15,01,23,8.60
2010,10,15,01,24,8.60
2010,10,15,01,25,8.60
2010,10,15,01,26,8.60
2010,10,15,01,27,8.50
2010,10,15,01,28,8.50
2010,10,15,01,29,8.50
2010,10,15,01,30,8.50
2010,10,15,01,31,8.50
2010,10,15,01,32,8.50
2010,10,15,01,33,8.50
2010,10,15,01,34,8.50
2010,10,15,01,35,8.50
2010,10,15,01,36,8.40
2010,10,15,01,37,8.40
2010,10,15,01,38,8.40
2010,10,15,01,39,8.40
2010,10,15,01,40,8.40
2010,10,15,01,41,8.40
2010,10,15,01,42,8.40
2010,10,15,01,43,8.40
2010,10,15,01,44,8.30
2010,10,15,01,45,8.30
2010,10,15,01,46,8.30
2010,10,15,01,47,8.30
2010,10,15,01,48,8.30
2010,10,15,01,49,8.30
2010,10,15,01,50,8.30
2010,10,15,01,51,8.30
2010,10,15,01,52,8.30
2010,10,15,01,53,8.30
2010,10,15,01,54,8.30
2010,10,15,01,55,8.30
2010,10,15,01,56,8.40
2010,10,15,01,57,8.40
2010,10,15,01,58,8.30
2010,10,15,01,59,8.40
2010,10,15,02,00,8.40
2010,10,15,02,01,8.40
2010,10,15,02,02,8.40
2010,10,15,02,03,8.40
2010,10,15,02,04,8.40
2010,10,15,02,05,8.40
2010,10,15,02,06,8.40
2010,10,15,02,07,8.40
2010,10,15,02,08,8.50
2010,10,15,02,09,8.50
2010,10,15,02,10,8.50
2010,10,15,02,11,8.50
2010,10,15,02,12,8.50
2010,10,15,02,13,8.60
2010,10,15,02,14,8.60
2010,10,15,02,15,8.60
2010,10,15,02,16,8.60
2010,10,15,02,17,8.60
2010,10,15,02,18,8.60
2010,10,15,02,19,8.60
2010,10,15,02,20,8.60
2010,10,15,02,21,8.60
2010,10,15,02,22,8.60
2010,10,15,02,23,8.60
2010,10,15,02,24,8.60
2010,10,15,02,25,8.60
2010,10,15,02,26,8.60
2010,10,15,02,27,8.60
2010,10,15,02,28,8.50
2010,10,15,02,29,8.50
2010,10,15,02,30,8.50
2010,10,15,02,31,8.50
2010,10,15,02,32,8.50
2010,10,15,02,33,8.50
2010,10,15,02,34,8.50
2010,10,15,02,35,8.50
2010,10,15,02,36,8.50
2010,10,15,02,37,8.50
2010,10,15,02,38,8.50
2010,10,15,02,39,8.50
2010,10,15,02,40,8.50
2010,10,15,02,41,8.50
2010,10,15,02,42,8.50
2010,10,15,02,43,8.50
2010,10,15,02,44,8.40
2010,10,15,02,45,8.40
2010,10,15,02,46,8.40
2010,10,15,02,47,8.40
2010,10,15,02,48,8.40
2010,10,15,02,49,8.40
2010,10,15,02,50,8.40
2010,10,15,02,51,8.40
2010,10,15,02,52,8.40
2010,10,15,02,53,8.40
2010,10,15,02,54,8.40
2010,10,15,02,55,8.40
2010,10,15,02,56,8.40
2010,10,15,02,57,8.40
2010,10,15,02,58,8.40
2010,10,15,02,59,8.40
2010,10,15,03,00,8.40
2010,10,15,03,01,8.40
2010,10,15,03,02,8.40
2010,10,15,03,03,8.40
2010,10,15,03,04,8.40
2010,10,15,03,05,8.40
2010,10,15,03,06,8.40
2010,10,15,03,07,8.40
2010,10,15,03,08,8.40
2010,10,15,03,09,8.30
2010,10,15,03,10,8.30
2010,10,15,03,11,8.30
2010,10,15,03,12,8.30
2010,10,15,03,13,8.30
2010,10,15,03,14,8.30
2010,10,15,03,15,8.30
2010,10,15,03,16,8.20
2010,10,15,03,17,8.20
2010,10,15,03,18,8.20
2010,10,15,03,19,8.20
2010,10,15,03,20,8.20
2010,10,15,03,21,8.20
2010,10,15,03,22,8.20
2010,10,15,03,23,8.20
2010,10,15,03,24,8.20
2010,10,15,03,25,8.20
2010,10,15,03,26,8.20
2010,10,15,03,27,8.20
2010,10,15,03,28,8.10
2010,10,15,03,29,8.10
2010,10,15,03,30,8.10
2010,10,15,03,31,8.10
2010,10,15,03,32,8.10
2010,10,15,03,33,8.10
2010,10,15,03,34,8.10
2010,10,15,03,35,8.10
2010,10,15,03,36,8.10
2010,10,15,03,37,8.10
2010,10,15,03,38,8.10
2010,10,15,03,39,8.10
2010,10,15,03,40,8.20
2010,10,15,03,41,8.20
2010,10,15,03,42,8.20
2010,10,15,03,43,8.20
2010,10,15,03,44,8.20
2010,10,15,03,45,8.20
2010,10,15,03,46,8.30
2010,10,15,03,47,8.30
2010,10,15,03,48,8.30
2010,10,15,03,49,8.30
2010,10,15,03,50,8.40
2010,10,15,03,51,8.40
2010,10,15,03,52,8.40
2010,10,15,03,53,8.40
2010,10,15,03,54,8.40
2010,10,15,03,55,8.40
2010,10,15,03,56,8.50
2010,10,15,03,57,8.50
2010,10,15,03,58,8.50
2010,10,15,03,59,8.40
2010,10,15,04,00,8.40
2010,10,15,04,01,8.40
2010,10,15,04,02,8.40
2010,10,15,04,03,8.40
2010,10,15,04,04,8.40
2010,10,15,04,05,8.30
2010,10,15,04,06,8.30
2010,10,15,04,07,8.30
2010,10,15,04,08,8.30
2010,10,15,04,09,8.30
2010,10,15,04,10,8.20
2010,10,15,04,11,8.20
2010,10,15,04,12,8.20
2010,10,15,04,13,8.20
2010,10,15,04,14,8.20
2010,10,15,04,15,8.20
2010,10,15,04,16,8.20
2010,10,15,04,17,8.20
2010,10,15,04,18,8.10
2010,10,15,04,19,8.10
2010,10,15,04,20,8.10
2010,10,15,04,21,8.00
2010,10,15,04,22,8.00
2010,10,15,04,23,8.00
2010,10,15,04,24,8.00
2010,10,15,04,25,7.90
2010,10,15,04,26,7.90
2010,10,15,04,27,7.90
2010,10,15,04,28,7.90
2010,10,15,04,29,7.90
2010,10,15,04,30,7.90
2010,10,15,04,31,7.90
2010,10,15,04,32,7.90
2010,10,15,04,33,7.90
2010,10,15,04,34,7.90
2010,10,15,04,35,7.90
2010,10,15,04,36,7.90
2010,10,15,04,37,7.90
2010,10,15,04,38,7.80
2010,10,15,04,39,7.80
2010,10,15,04,40,7.80
2010,10,15,04,41,7.80
2010,10,15,04,42,7.80
2010,10,15,04,43,7.80
2010,10,15,04,44,7.80
2010,10,15,04,45,7.80
2010,10,15,04,46,7.80
2010,10,15,04,47,7.80
2010,10,15,04,48,7.80
2010,10,15,04,49,7.70
2010,10,15,04,50,7.70
2010,10,15,04,51,7.70
2010,10,15,04,52,7.60
2010,10,15,04,53,7.60
2010,10,15,04,54,7.60
2010,10,15,04,55,7.50
2010,10,15,04,56,7.50
2010,10,15,04,57,7.50
2010,10,15,04,58,7.40
2010,10,15,04,59,7.40
2010,10,15,05,00,7.40
2010,10,15,05,01,7.40
2010,10,15,05,02,7.40
2010,10,15,05,03,7.40
2010,10,15,05,04,7.40
2010,10,15,05,05,7.40
2010,10,15,05,06,7.40
2010,10,15,05,07,7.40
2010,10,15,05,08,7.40
2010,10,15,05,09,7.40
2010,10,15,05,10,7.40
2010,10,15,05,11,7.40
2010,10,15,05,12,7.40
2010,10,15,05,13,7.40
2010,10,15,05,14,7.40
2010,10,15,05,15,7.40
2010,10,15,05,16,7.40
2010,10,15,05,17,7.40
2010,10,15,05,18,7.30
2010,10,15,05,19,7.30
2010,10,15,05,20,7.30
2010,10,15,05,21,7.30
2010,10,15,05,22,7.30
2010,10,15,05,23,7.30
2010,10,15,05,24,7.30
2010,10,15,05,25,7.30
2010,10,15,05,26,7.30
2010,10,15,05,27,7.30
2010,10,15,05,28,7.30
2010,10,15,05,29,7.30
2010,10,15,05,30,7.30
2010,10,15,05,31,7.30
2010,10,15,05,32,7.30
2010,10,15,05,33,7.30
2010,10,15,05,34,7.30
2010,10,15,05,35,7.30
2010,10,15,05,36,7.30
2010,10,15,05,37,7.30
2010,10,15,05,38,7.30
2010,10,15,05,39,7.30
2010,10,15,05,40,7.30
2010,10,15,05,41,7.20
2010,10,15,05,42,7.20
2010,10,15,05,43,7.20
2010,10,15,05,44,7.10
2010,10,15,05,45,7.10
2010,10,15,05,46,7.00
2010,10,15,05,47,7.00
2010,10,15,05,48,6.90
2010,10,15,05,49,6.90
2010,10,15,05,50,6.80
2010,10,15,05,51,6.80
2010,10,15,05,52,6.80
2010,10,15,05,53,6.80
2010,10,15,05,54,6.80
2010,10,15,05,55,6.80
2010,10,15,05,56,6.70
2010,10,15,05,57,6.70
2010,10,15,05,58,6.70
2010,10,15,05,59,6.70
2010,10,15,06,00,6.70
2010,10,15,06,01,6.80
2010,10,15,06,02,6.80
2010,10,15,06,03,6.80
2010,10,15,06,04,6.80
2010,10,15,06,05,6.80
2010,10,15,06,06,6.90
2010,10,15,06,07,6.90
2010,10,15,06,08,6.90
2010,10,15,06,09,7.00
2010,10,15,06,10,7.00
2010,10,15,06,11,7.00
2010,10,15,06,12,7.00
2010,10,15,06,13,7.00
2010,10,15,06,14,7.00
2010,10,15,06,15,7.00
2010,10,15,06,16,6.90
2010,10,15,06,17,6.90
2010,10,15,06,18,6.90
2010,10,15,06,19,6.80
2010,10,15,06,20,6.80
2010,10,15,06,21,6.80
2010,10,15,06,22,6.80
2010,10,15,06,23,6.80
2010,10,15,06,24,6.70
2010,10,15,06,25,6.70
2010,10,15,06,26,6.70
2010,10,15,06,27,6.70
2010,10,15,06,28,6.60
2010,10,15,06,29,6.60
2010,10,15,06,30,6.60
2010,10,15,06,31,6.60
2010,10,15,06,32,6.60
2010,10,15,06,33,6.60
2010,10,15,06,34,6.60
2010,10,15,06,35,6.60
2010,10,15,06,36,6.60
2010,10,15,06,37,6.60
2010,10,15,06,38,6.60
2010,10,15,06,39,6.50
2010,10,15,06,40,6.40
2010,10,15,06,41,6.40
2010,10,15,06,42,6.40
2010,10,15,06,43,6.40
2010,10,15,06,44,6.40
2010,10,15,06,45,6.40
2010,10,15,06,46,6.40
2010,10,15,06,47,6.40
2010,10,15,06,48,6.40
2010,10,15,06,49,6.40
2010,10,15,06,50,6.40
2010,10,15,06,51,6.40
2010,10,15,06,52,6.40
2010,10,15,06,53,6.40
2010,10,15,06,54,6.40
2010,10,15,06,55,6.40
2010,10,15,06,56,6.40
2010,10,15,06,57,6.40
2010,10,15,06,58,6.40
2010,10,15,06,59,6.40
2010,10,15,07,00,6.30
2010,10,15,07,01,6.30
2010,10,15,07,02,6.30
2010,10,15,07,03,6.30
2010,10,15,07,04,6.30
2010,10,15,07,05,6.20
2010,10,15,07,06,6.20
2010,10,15,07,07,6.20
2010,10,15,07,08,6.20
2010,10,15,07,09,6.20
2010,10,15,07,10,6.10
2010,10,15,07,11,6.10
2010,10,15,07,12,6.00
2010,10,15,07,13,6.00
2010,10,15,07,14,6.00
2010,10,15,07,15,6.00
2010,10,15,07,16,5.90
2010,10,15,07,17,5.90
2010,10,15,07,18,5.90
2010,10,15,07,19,5.90
2010,10,15,07,20,5.90
2010,10,15,07,21,5.90
2010,10,15,07,22,5.90
2010,10,15,07,23,5.90
2010,10,15,07,24,5.90
2010,10,15,07,25,6.00
2010,10,15,07,26,6.00
2010,10,15,07,27,6.00
2010,10,15,07,28,6.00
2010,10,15,07,29,6.00
2010,10,15,07,30,6.00
2010,10,15,07,31,6.00
2010,10,15,07,32,6.00
2010,10,15,07,33,6.00
2010,10,15,07,34,6.00
2010,10,15,07,35,6.00
2010,10,15,07,36,6.00
2010,10,15,07,37,6.10
2010,10,15,07,38,6.10
2010,10,15,07,39,6.10
2010,10,15,07,40,6.10
2010,10,15,07,41,6.10
2010,10,15,07,42,6.10
2010,10,15,07,43,6.20
2010,10,15,07,44,6.20
2010,10,15,07,45,6.20
2010,10,15,07,46,6.20
2010,10,15,07,47,6.20
2010,10,15,07,48,6.20
2010,10,15,07,49,6.20
2010,10,15,07,50,6.20
2010,10,15,07,51,6.20
2010,10,15,07,52,6.20
2010,10,15,07,53,6.20
2010,10,15,07,54,6.20
2010,10,15,07,55,6.20
2010,10,15,07,56,6.20
2010,10,15,07,57,6.20
2010,10,15,07,58,6.20
2010,10,15,07,59,6.10
2010,10,15,08,00,6.10
2010,10,15,08,01,6.10
2010,10,15,08,02,6.10
2010,10,15,08,03,6.00
2010,10,15,08,04,6.00
2010,10,15,08,05,6.00
2010,10,15,08,06,6.00
2010,10,15,08,07,6.00
2010,10,15,08,08,6.00
2010,10,15,08,09,6.00
2010,10,15,08,10,6.00
2010,10,15,08,11,5.90
2010,10,15,08,12,5.90
2010,10,15,08,13,5.90
2010,10,15,08,14,5.90
2010,10,15,08,15,6.00
2010,10,15,08,16,6.00
2010,10,15,08,17,6.00
2010,10,15,08,18,6.10
2010,10,15,08,19,6.10
2010,10,15,08,20,6.20
2010,10,15,08,21,6.20
2010,10,15,08,22,6.20
2010,10,15,08,23,6.20
2010,10,15,08,24,6.30
2010,10,15,08,25,6.30
2010,10,15,08,26,6.30
2010,10,15,08,27,6.40
2010,10,15,08,28,6.40
2010,10,15,08,29,6.50
2010,10,15,08,30,6.60
2010,10,15,08,31,6.60
2010,10,15,08,32,6.70
2010,10,15,08,33,6.70
2010,10,15,08,34,6.80
2010,10,15,08,35,6.80
2010,10,15,08,36,6.90
2010,10,15,08,37,7.00
2010,10,15,08,38,7.00
2010,10,15,08,39,7.10
2010,10,15,08,40,7.20
2010,10,15,08,41,7.20
2010,10,15,08,42,7.30
2010,10,15,08,43,7.30
2010,10,15,08,44,7.40
2010,10,15,08,45,7.50
2010,10,15,08,46,7.50
2010,10,15,08,47,7.60
2010,10,15,08,48,7.70
2010,10,15,08,49,7.70
2010,10,15,08,50,7.80
2010,10,15,08,51,7.80
2010,10,15,08,52,7.90
2010,10,15,08,53,7.90
2010,10,15,08,54,8.00
2010,10,15,08,55,8.00
2010,10,15,08,56,8.10
2010,10,15,08,57,8.20
2010,10,15,08,58,8.20
2010,10,15,08,59,8.20
2010,10,15,09,00,8.30
2010,10,15,09,01,8.40
2010,10,15,09,02,8.40
2010,10,15,09,03,8.50
2010,10,15,09,04,8.60
2010,10,15,09,05,8.60
2010,10,15,09,06,8.70
2010,10,15,09,07,8.70
2010,10,15,09,08,8.70
2010,10,15,09,09,8.70
2010,10,15,09,10,8.70
2010,10,15,09,11,8.70
2010,10,15,09,12,8.80
2010,10,15,09,13,8.80
2010,10,15,09,14,8.80
2010,10,15,09,15,8.90
2010,10,15,09,16,8.90
2010,10,15,09,17,8.90
2010,10,15,09,18,9.00
2010,10,15,09,19,9.00
2010,10,15,09,20,9.10
2010,10,15,09,21,9.10
2010,10,15,09,22,9.20
2010,10,15,09,23,9.20
2010,10,15,09,24,9.20
2010,10,15,09,25,9.20
2010,10,15,09,26,9.30
2010,10,15,09,27,9.30
2010,10,15,09,28,9.30
2010,10,15,09,29,9.40
2010,10,15,09,30,9.40
2010,10,15,09,31,9.50
2010,10,15,09,32,9.60
2010,10,15,09,33,9.70
2010,10,15,09,34,9.70
2010,10,15,09,35,9.80
2010,10,15,09,36,9.90
2010,10,15,09,37,9.90
2010,10,15,09,38,9.90
2010,10,15,09,39,9.90
2010,10,15,09,40,9.90
2010,10,15,09,41,9.90
2010,10,15,09,42,9.90
2010,10,15,09,43,10.00
2010,10,15,09,44,10.10
2010,10,15,09,45,10.10
2010,10,15,09,46,10.10
2010,10,15,09,47,10.20
2010,10,15,09,48,10.20
2010,10,15,09,49,10.30
2010,10,15,09,50,10.40
2010,10,15,09,51,10.40
2010,10,15,09,52,10.40
2010,10,15,09,53,10.40
2010,10,15,09,54,10.40
2010,10,15,09,55,10.40
2010,10,15,09,56,10.40
2010,10,15,09,57,10.40
2010,10,15,09,58,10.40
2010,10,15,09,59,10.40
2010,10,15,10,00,10.40
2010,10,15,10,01,10.40
2010,10,15,10,02,10.40
2010,10,15,10,03,10.30
2010,10,15,10,04,10.30
2010,10,15,10,05,10.30
2010,10,15,10,06,10.30
2010,10,15,10,07,10.30
2010,10,15,10,08,10.20
2010,10,15,10,09,10.20
2010,10,15,10,10,10.20
2010,10,15,10,11,10.10
2010,10,15,10,12,10.10
2010,10,15,10,13,10.10
2010,10,15,10,14,10.10
2010,10,15,10,15,10.10
2010,10,15,10,16,10.10
2010,10,15,10,17,10.10
2010,10,15,10,18,10.10
2010,10,15,10,19,10.10
2010,10,15,10,20,10.10
2010,10,15,10,21,10.10
2010,10,15,10,22,10.10
2010,10,15,10,23,10.10
2010,10,15,10,24,10.10
2010,10,15,10,25,10.10
2010,10,15,10,26,10.20
2010,10,15,10,27,10.20
2010,10,15,10,28,10.20
2010,10,15,10,29,10.10
2010,10,15,10,30,10.10
2010,10,15,10,31,10.10
2010,10,15,10,32,10.20
2010,10,15,10,33,10.20
2010,10,15,10,34,10.10
2010,10,15,10,35,10.10
2010,10,15,10,36,10.10
2010,10,15,10,37,10.10
2010,10,15,10,38,10.10
2010,10,15,10,39,10.10
2010,10,15,10,40,10.10
2010,10,15,10,41,10.10
2010,10,15,10,42,10.20
2010,10,15,10,43,10.20
2010,10,15,10,44,10.30
2010,10,15,10,45,10.30
2010,10,15,10,46,10.40
2010,10,15,10,47,10.40
2010,10,15,10,48,10.50
2010,10,15,10,49,10.60
2010,10,15,10,50,10.60
2010,10,15,10,51,10.60
2010,10,15,10,52,10.60
2010,10,15,10,53,10.60
2010,10,15,10,54,10.60
2010,10,15,10,55,10.60
2010,10,15,10,56,10.60
2010,10,15,10,57,10.60
2010,10,15,10,58,10.50
2010,10,15,10,59,10.40
2010,10,15,11,00,10.40
2010,10,15,11,01,10.40
2010,10,15,11,02,10.40
2010,10,15,11,03,10.50
2010,10,15,11,04,10.50
2010,10,15,11,05,10.40
2010,10,15,11,06,10.40
2010,10,15,11,07,10.60
2010,10,15,11,08,10.60
2010,10,15,11,09,10.60
2010,10,15,11,10,10.60
2010,10,15,11,11,10.60
2010,10,15,11,12,10.60
2010,10,15,11,13,10.60
2010,10,15,11,14,10.60
2010,10,15,11,15,10.60
2010,10,15,11,16,10.60
2010,10,15,11,17,10.70
2010,10,15,11,18,10.70
2010,10,15,11,19,10.60
2010,10,15,11,20,10.60
2010,10,15,11,21,10.60
2010,10,15,11,22,10.60
2010,10,15,11,23,10.60
2010,10,15,11,24,10.60
2010,10,15,11,25,10.60
2010,10,15,11,26,10.70
2010,10,15,11,27,10.70
2010,10,15,11,28,10.70
2010,10,15,11,29,10.70
2010,10,15,11,30,10.70
2010,10,15,11,31,10.70
2010,10,15,11,32,10.80
2010,10,15,11,33,10.80
2010,10,15,11,34,10.80
2010,10,15,11,35,10.90
2010,10,15,11,36,10.90
2010,10,15,11,37,10.90
2010,10,15,11,38,10.90
2010,10,15,11,39,10.90
2010,10,15,11,40,10.90
2010,10,15,11,41,10.90
2010,10,15,11,42,10.90
2010,10,15,11,43,10.90
2010,10,15,11,44,10.90
2010,10,15,11,45,10.90
2010,10,15,11,46,10.90
2010,10,15,11,47,11.00
2010,10,15,11,48,11.10
2010,10,15,11,49,11.10
2010,10,15,11,50,11.10
2010,10,15,11,51,11.20
2010,10,15,11,52,11.20
2010,10,15,11,53,11.10
2010,10,15,11,54,11.10
2010,10,15,11,55,11.10
2010,10,15,11,56,11.10
2010,10,15,11,57,11.10
2010,10,15,11,58,11.10
2010,10,15,11,59,11.20
2010,10,15,12,00,11.20
2010,10,15,12,01,11.30
2010,10,15,12,02,11.30
2010,10,15,12,03,11.40
2010,10,15,12,04,11.40
2010,10,15,12,05,11.40
2010,10,15,12,06,11.40
2010,10,15,12,07,11.40
2010,10,15,12,08,11.30
2010,10,15,12,09,11.20
2010,10,15,12,10,11.20
2010,10,15,12,11,11.30
2010,10,15,12,12,11.30
2010,10,15,12,13,11.40
2010,10,15,12,14,11.40
2010,10,15,12,15,11.40
2010,10,15,12,16,11.40
2010,10,15,12,17,11.50
2010,10,15,12,18,11.60
2010,10,15,12,19,11.60
2010,10,15,12,20,11.60
2010,10,15,12,21,11.60
2010,10,15,12,22,11.70
2010,10,15,12,23,11.70
2010,10,15,12,24,11.70
2010,10,15,12,25,11.70
2010,10,15,12,26,11.70
2010,10,15,12,27,11.70
2010,10,15,12,28,11.70
2010,10,15,12,29,11.80
2010,10,15,12,30,11.80
2010,10,15,12,31,11.80
2010,10,15,12,32,11.80
2010,10,15,12,33,11.80
2010,10,15,12,34,11.70
2010,10,15,12,35,11.70
2010,10,15,12,36,11.70
2010,10,15,12,37,11.70
2010,10,15,12,38,11.80
2010,10,15,12,39,11.80
2010,10,15,12,40,11.80
2010,10,15,12,41,11.80
2010,10,15,12,42,11.80
2010,10,15,12,43,11.80
2010,10,15,12,44,11.80
2010,10,15,12,45,11.80
2010,10,15,12,46,11.80
2010,10,15,12,47,11.80
2010,10,15,12,48,11.80
2010,10,15,12,49,11.80
2010,10,15,12,50,11.80
2010,10,15,12,51,11.80
2010,10,15,12,52,11.70
2010,10,15,12,53,11.60
2010,10,15,12,54,11.60
2010,10,15,12,55,11.60
2010,10,15,12,56,11.60
2010,10,15,12,57,11.60
2010,10,15,12,58,11.60
2010,10,15,12,59,11.60
2010,10,15,13,00,11.60
2010,10,15,13,01,11.60
2010,10,15,13,02,11.60
2010,10,15,13,03,11.60
2010,10,15,13,04,11.70
2010,10,15,13,05,11.70
2010,10,15,13,06,11.70
2010,10,15,13,07,11.80
2010,10,15,13,08,11.80
2010,10,15,13,09,11.80
2010,10,15,13,10,11.80
2010,10,15,13,11,11.90
2010,10,15,13,12,11.90
2010,10,15,13,13,12.00
2010,10,15,13,14,12.10
2010,10,15,13,15,12.10
2010,10,15,13,16,12.20
2010,10,15,13,17,12.20
2010,10,15,13,18,12.30
2010,10,15,13,19,12.30
2010,10,15,13,20,12.30
2010,10,15,13,21,12.20
2010,10,15,13,22,12.10
2010,10,15,13,23,12.10
2010,10,15,13,24,12.10
2010,10,15,13,25,12.10
2010,10,15,13,26,12.10
2010,10,15,13,27,12.10
2010,10,15,13,28,12.10
2010,10,15,13,29,12.10
2010,10,15,13,30,12.20
2010,10,15,13,31,12.20
2010,10,15,13,32,12.30
2010,10,15,13,33,12.30
2010,10,15,13,34,12.30
2010,10,15,13,35,12.30
2010,10,15,13,36,12.40
2010,10,15,13,37,12.50
2010,10,15,13,38,12.50
2010,10,15,13,39,12.50
2010,10,15,13,40,12.40
2010,10,15,13,41,12.40
2010,10,15,13,42,12.30
2010,10,15,13,43,12.30
2010,10,15,13,44,12.30
2010,10,15,13,45,12.30
2010,10,15,13,46,12.30
2010,10,15,13,47,12.30
2010,10,15,13,48,12.30
2010,10,15,13,49,12.30
2010,10,15,13,50,12.30
2010,10,15,13,51,12.30
2010,10,15,13,52,12.30
2010,10,15,13,53,12.50
2010,10,15,13,54,12.50
2010,10,15,13,55,12.60
2010,10,15,13,56,12.70
2010,10,15,13,57,12.80
2010,10,15,13,58,12.80
2010,10,15,13,59,12.80
2010,10,15,14,00,12.80
2010,10,15,14,01,12.80
2010,10,15,14,02,12.80
2010,10,15,14,03,12.80
2010,10,15,14,04,12.70
2010,10,15,14,05,12.60
2010,10,15,14,06,12.40
2010,10,15,14,07,12.30
2010,10,15,14,08,12.10
2010,10,15,14,09,12.00
2010,10,15,14,10,11.90
2010,10,15,14,11,11.80
2010,10,15,14,12,11.80
2010,10,15,14,13,11.80
2010,10,15,14,14,11.80
2010,10,15,14,15,11.80
2010,10,15,14,16,11.80
2010,10,15,14,17,11.80
2010,10,15,14,18,11.90
2010,10,15,14,19,11.80
2010,10,15,14,20,11.80
2010,10,15,14,21,11.80
2010,10,15,14,22,11.80
2010,10,15,14,23,11.70
2010,10,15,14,24,11.70
2010,10,15,14,25,11.60
2010,10,15,14,26,11.60
2010,10,15,14,27,11.70
2010,10,15,14,28,11.80
2010,10,15,14,29,11.80
2010,10,15,14,30,11.90
2010,10,15,14,31,12.00
2010,10,15,14,32,12.00
2010,10,15,14,33,12.10
2010,10,15,14,34,12.20
2010,10,15,14,35,12.40
2010,10,15,14,36,12.50
2010,10,15,14,37,12.50
2010,10,15,14,38,12.50
2010,10,15,14,39,12.50
2010,10,15,14,40,12.60
2010,10,15,14,41,12.60
2010,10,15,14,42,12.70
2010,10,15,14,43,12.80
2010,10,15,14,44,12.90
2010,10,15,14,45,13.00
2010,10,15,14,46,13.00
2010,10,15,14,47,13.10
2010,10,15,14,48,13.10
2010,10,15,14,49,13.20
2010,10,15,14,50,13.30
2010,10,15,14,51,13.30
2010,10,15,14,52,13.30
2010,10,15,14,53,13.30
2010,10,15,14,54,13.20
2010,10,15,14,55,13.10
2010,10,15,14,56,13.10
2010,10,15,14,57,13.00
2010,10,15,14,58,13.10
2010,10,15,14,59,13.00
2010,10,15,15,00,13.10
2010,10,15,15,01,13.10
2010,10,15,15,02,13.10
2010,10,15,15,03,13.10
2010,10,15,15,04,13.20
2010,10,15,15,05,13.20
2010,10,15,15,06,13.30
2010,10,15,15,07,13.30
2010,10,15,15,08,13.30
2010,10,15,15,09,13.30
2010,10,15,15,10,13.30
2010,10,15,15,11,13.30
2010,10,15,15,12,13.30
2010,10,15,15,13,13.30
2010,10,15,15,14,13.30
2010,10,15,15,15,13.30
2010,10,15,15,16,13.30
2010,10,15,15,17,13.20
2010,10,15,15,18,13.20
2010,10,15,15,19,13.20
2010,10,15,15,20,13.20
2010,10,15,15,21,13.20
2010,10,15,15,22,13.30
2010,10,15,15,23,13.30
2010,10,15,15,24,13.40
2010,10,15,15,25,13.40
2010,10,15,15,26,13.40
2010,10,15,15,27,13.30
2010,10,15,15,28,13.30
2010,10,15,15,29,13.40
2010,10,15,15,30,13.40
2010,10,15,15,31,13.30
2010,10,15,15,32,13.30
2010,10,15,15,33,13.40
2010,10,15,15,34,13.40
2010,10,15,15,35,13.30
2010,10,15,15,36,13.30
2010,10,15,15,37,13.30
2010,10,15,15,38,13.30
2010,10,15,15,39,13.30
2010,10,15,15,40,13.30
2010,10,15,15,41,13.30
2010,10,15,15,42,13.40
2010,10,15,15,43,13.40
2010,10,15,15,44,13.40
2010,10,15,15,45,13.40
2010,10,15,15,46,13.40
2010,10,15,15,47,13.40
2010,10,15,15,48,13.30
2010,10,15,15,49,13.20
2010,10,15,15,50,13.20
2010,10,15,15,51,13.10
2010,10,15,15,52,13.00
2010,10,15,15,53,12.90
2010,10,15,15,54,12.80
2010,10,15,15,55,12.80
2010,10,15,15,56,12.80
2010,10,15,15,57,12.70
2010,10,15,15,58,12.70
2010,10,15,15,59,12.60
2010,10,15,16,00,12.50
2010,10,15,16,01,12.50
2010,10,15,16,02,12.40
2010,10,15,16,03,12.40
2010,10,15,16,04,12.30
2010,10,15,16,05,12.30
2010,10,15,16,06,12.30
2010,10,15,16,07,12.30
2010,10,15,16,08,12.30
2010,10,15,16,09,12.30
2010,10,15,16,10,12.30
2010,10,15,16,11,12.30
2010,10,15,16,12,12.20
2010,10,15,16,13,12.10
2010,10,15,16,14,12.10
2010,10,15,16,15,12.10
2010,10,15,16,16,12.10
2010,10,15,16,17,12.10
2010,10,15,16,18,12.10
2010,10,15,16,19,12.10
2010,10,15,16,20,12.10
2010,10,15,16,21,12.10
2010,10,15,16,22,12.00
2010,10,15,16,23,12.00
2010,10,15,16,24,11.90
2010,10,15,16,25,11.90
2010,10,15,16,26,11.90
2010,10,15,16,27,11.90
2010,10,15,16,28,11.90
2010,10,15,16,29,11.90
2010,10,15,16,30,11.90
2010,10,15,16,31,11.90
2010,10,15,16,32,11.90
2010,10,15,16,33,11.90
2010,10,15,16,34,12.00
2010,10,15,16,35,12.00
2010,10,15,16,36,12.00
2010,10,15,16,37,12.00
2010,10,15,16,38,12.00
2010,10,15,16,39,12.00
2010,10,15,16,40,12.10
2010,10,15,16,41,12.10
2010,10,15,16,42,12.10
2010,10,15,16,43,12.10
2010,10,15,16,44,12.00
2010,10,15,16,45,12.00
2010,10,15,16,46,12.00
2010,10,15,16,47,11.90
2010,10,15,16,48,11.90
2010,10,15,16,49,11.80
2010,10,15,16,50,11.80
2010,10,15,16,51,11.80
2010,10,15,16,52,11.80
2010,10,15,16,53,11.80
2010,10,15,16,54,11.70
2010,10,15,16,55,11.70
2010,10,15,16,56,11.70
2010,10,15,16,57,11.70
2010,10,15,16,58,11.70
2010,10,15,16,59,11.60
2010,10,15,17,00,11.60
2010,10,15,17,01,11.60
2010,10,15,17,02,11.60
2010,10,15,17,03,11.60
2010,10,15,17,04,11.60
2010,10,15,17,05,11.60
2010,10,15,17,06,11.60
2010,10,15,17,07,11.60
2010,10,15,17,08,11.60
2010,10,15,17,09,11.60
2010,10,15,17,10,11.60
2010,10,15,17,11,11.50
2010,10,15,17,12,11.50
2010,10,15,17,13,11.40
2010,10,15,17,14,11.40
2010,10,15,17,15,11.40
2010,10,15,17,16,11.40
2010,10,15,17,17,11.40
2010,10,15,17,18,11.40
2010,10,15,17,19,11.40
2010,10,15,17,20,11.40
2010,10,15,17,21,11.30
2010,10,15,17,22,11.30
2010,10,15,17,23,11.30
2010,10,15,17,24,11.30
2010,10,15,17,25,11.20
2010,10,15,17,26,11.20
2010,10,15,17,27,11.20
2010,10,15,17,28,11.10
2010,10,15,17,29,11.10
2010,10,15,17,30,11.10
2010,10,15,17,31,11.00
2010,10,15,17,32,10.90
2010,10,15,17,33,10.90
2010,10,15,17,34,10.90
2010,10,15,17,35,10.90
2010,10,15,17,36,10.80
2010,10,15,17,37,10.80
2010,10,15,17,38,10.70
2010,10,15,17,39,10.70
2010,10,15,17,40,10.60
2010,10,15,17,41,10.60
2010,10,15,17,42,10.60
2010,10,15,17,43,10.60
2010,10,15,17,44,10.60